D0A00FA14 Weather Reports


Display with metric or nautical units.
time (UTC)temp
F
wind
direction
speed
MPH
gust
MPH
rain 1hr
in
rain 24hr
in
rain mn
in
humidity
%
barometer
mb
20210126011529 33 319 1.0 4.0 0.00 0.01 0.00 89 1019.9
20210126010022 33 325 1.0 4.0 0.00 0.01 0.00 89 1020.0
20210126004520 33 5 1.0 3.0 0.00 0.02 0.00 90 1019.8
20210126000319 33 309 2.0 3.0 0.00 0.02 0.00 89 1019.4
20210125234708 33 299 0.0 2.0 0.00 0.02 0.00 89 1019.4
20210125233219 33 298 0.0 2.0 0.00 0.02 0.00 89 1019.4
20210125231658 33 288 1.0 2.0 0.00 0.02 0.00 88 1019.3
20210125230116 34 319 0.0 5.0 0.00 0.02 0.00 86 1019.1
20210125224615 34 287 0.0 4.0 0.00 0.02 0.02 88 1019.0
20210125223058 34 267 0.0 2.0 0.00 0.02 0.02 87 1018.9
20210125221706 34 311 1.0 2.0 0.00 0.02 0.02 86 1018.8
20210125220103 34 309 0.0 6.0 0.00 0.02 0.02 85 1018.7
20210125214548 35 300 2.0 5.0 0.00 0.02 0.02 85 1018.5
20210125213059 35 283 2.0 5.0 0.00 0.02 0.02 85 1018.4
20210125211603 34 302 0.0 4.0 0.00 0.02 0.02 85 1018.4
20210125210130 35 277 2.0 5.0 0.00 0.02 0.02 83 1018.4
20210125204718 34 291 1.0 5.0 0.00 0.02 0.02 84 1018.2
20210125203214 35 291 4.0 6.0 0.00 0.02 0.02 85 1017.9
20210125201636 33 293 3.0 5.0 0.00 0.02 0.02 89 1017.6
20210125200110 33 268 1.0 3.0 0.00 0.02 0.02 89 1017.3
20210125194629 33 308 0.0 2.0 0.00 0.02 0.02 89 1016.9
20210125191626 34 308 0.0 2.0 0.00 0.02 0.02 88 1016.6
20210125190041 34 308 0.0 2.0 0.00 0.02 0.02 88 1016.5
20210125184554 34 308 0.0 1.0 0.00 0.02 0.02 87 1016.4
20210125183028 34 308 0.0 1.0 0.00 0.02 0.02 85 1016.3
20210125181545 35 308 0.0 2.0 0.00 0.02 0.02 84 1016.1
20210125180133 35 276 0.0 2.0 0.00 0.02 0.02 83 1015.9
20210125174532 36 276 0.0 2.0 0.00 0.02 0.02 80 1015.6
20210125173035 38 276 0.0 1.0 0.00 0.02 0.02 77 1015.5
20210125171606 38 276 0.0 1.0 0.00 0.02 0.02 74 1015.3
20210125170048 39 276 0.0 5.0 0.00 0.02 0.02 72 1015.0
20210125164603 40 238 2.0 9.0 0.00 0.02 0.02 69 1014.8
20210125163038 40 261 5.0 10.0 0.00 0.02 0.02 67 1014.6
20210125161531 41 272 4.0 10.0 0.00 0.02 0.02 68 1014.3
20210125160116 41 272 7.0 10.0 0.00 0.02 0.02 67 1013.9
20210125154751 42 271 9.0 14.0 0.00 0.02 0.02 64 1013.4
20210125153307 42 281 8.0 16.0 0.00 0.02 0.02 61 1013.2
20210125151613 42 288 12.0 20.0 0.00 0.02 0.02 63 1012.8
20210125150112 42 251 7.0 14.0 0.00 0.02 0.02 68 1012.7
20210125144625 42 286 13.0 18.0 0.00 0.03 0.02 69 1012.5
20210125143100 42 266 9.0 18.0 0.00 0.03 0.02 69 1012.2
20210125141616 42 277 8.0 16.0 0.00 0.03 0.02 71 1012.2
20210125140113 42 312 10.0 16.0 0.00 0.03 0.02 70 1011.8
20210125134716 41 262 9.0 16.0 0.00 0.08 0.02 72 1011.6
20210125133143 41 269 8.0 20.0 0.00 0.08 0.02 75 1011.4
20210125131612 41 271 13.0 18.0 0.00 0.08 0.02 76 1011.0
20210125130120 41 281 13.0 25.0 0.00 0.08 0.02 78 1010.8
20210125124615 41 302 11.0 21.0 0.00 0.13 0.02 80 1010.7
20210125123126 40 277 11.0 22.0 0.00 0.13 0.02 80 1010.7
20210125120051 40 272 11.0 20.0 0.00 0.13 0.02 81 1010.5
20210125114604 40 273 13.0 18.0 0.00 0.16 0.02 82 1010.1
20210125113040 40 279 11.0 20.0 0.00 0.16 0.02 83 1010.0
20210125111543 39 259 10.0 16.0 0.00 0.16 0.02 83 1009.9
20210125110041 39 294 12.0 20.0 0.00 0.16 0.02 84 1009.8
20210125104552 38 224 9.0 19.0 0.00 0.16 0.02 85 1009.1
20210125103029 38 257 11.0 16.0 0.00 0.16 0.02 85 1008.8
20210125101515 38 281 11.0 19.0 0.00 0.16 0.02 85 1008.4
20210125094645 38 266 15.0 23.0 0.00 0.17 0.02 84 1007.5
20210125093151 38 280 13.0 23.0 0.00 0.17 0.02 87 1007.1
20210125091611 37 290 9.0 15.0 0.00 0.17 0.02 88 1006.9
20210125090120 37 271 5.0 16.0 0.00 0.17 0.02 90 1006.5
20210125084622 36 279 7.0 13.0 0.00 0.17 0.02 91 1006.1
20210125083107 36 292 7.0 10.0 0.00 0.17 0.02 91 1005.6
20210125081620 36 292 4.0 11.0 0.00 0.17 0.02 92 1005.1
20210125080129 36 268 6.0 9.0 0.00 0.17 0.02 92 1004.9
20210125074618 35 284 6.0 11.0 0.00 0.17 0.02 93 1004.7
20210125073039 35 280 5.0 7.0 0.01 0.17 0.02 92 1004.3
20210125071644 35 240 2.0 7.0 0.01 0.17 0.02 92 1004.2
20210125070218 35 254 5.0 10.0 0.01 0.17 0.02 92 1003.8
20210125064557 35 223 4.0 11.0 0.01 0.17 0.02 92 1003.6
20210125063051 35 278 6.0 10.0 0.00 0.16 0.01 92 1003.3
20210125061538 35 277 4.0 11.0 0.00 0.16 0.01 92 1003.1
20210125054533 35 277 5.0 9.0 0.00 0.16 0.01 93 1002.7
20210125053050 35 279 6.0 9.0 0.00 0.16 0.01 92 1002.5
20210125051528 35 275 4.0 10.0 0.00 0.16 0.01 92 1002.2
20210125050022 35 252 4.0 8.0 0.00 0.16 0.01 92 1002.1
20210125044536 35 271 1.0 8.0 0.00 0.16 0.01 92 1002.0
20210125043028 35 248 2.0 8.0 0.00 0.16 0.01 92 1001.7
20210125041511 35 266 3.0 9.0 0.00 0.16 0.01 92 1001.6
20210125040019 35 189 4.0 10.0 0.00 0.16 0.01 92 1001.5
20210125034717 35 282 4.0 10.0 0.00 0.16 0.01 92 1001.3
20210125033215 36 295 2.0 8.0 0.00 0.16 0.01 92 1001.2
20210125031651 36 249 5.0 9.0 0.00 0.16 0.01 93 1001.2
20210125030203 36 268 2.0 6.0 0.00 0.16 0.01 93 1001.0
20210125024617 36 262 3.0 7.0 0.00 0.16 0.01 93 1000.8
20210125023142 36 288 5.0 9.0 0.00 0.16 0.01 93 1000.8
20210125021609 35 279 4.0 9.0 0.00 0.16 0.01 92 1000.7
20210125020130 35 283 3.0 9.0 0.00 0.16 0.01 92 1000.2
20210125014645 35 278 2.0 8.0 0.00 0.16 0.01 92 1000.0
20210125013058 35 223 5.0 11.0 0.01 0.16 0.01 91 999.9